Weather History for Glendive, MT

Change the Weather History Date:

Friday, July 25, 2014

  Actual Average Record
Temperature  
Mean Temperature 69 °F -  
Max Temperature 87 °F 84 °F 93 °F (2002)
Min Temperature 51 °F 57 °F 51 °F (1996)
Cooling Degree Days 4    
Growing Degree Days 19 (Base 50)    
Moisture  
Dew Point 42 °F    
Average Humidity 45    
Maximum Humidity 88    
Minimum Humidity 14    
Precipitation  
Precipitation 0.43 in - - ()
Sea Level Pressure  
Sea Level Pressure 29.88 in    
Wind  
Wind Speed 10 mph (West)    
Max Wind Speed 25 mph    
Max Gust Speed 38 mph    
Visibility 10 miles    
Events      
Averages and records for this station are not official NWS values.
T = Trace of Precipitation, MM = Missing Value Source: NWS Daily Summary

Daily Weather History Graph

Daily Weather History Graph

Search for Another Location

Airport:

Trip Planner

Search our weather history database for the weather conditions in past years. The results will help you decide how hot, cold, wet, or windy it might be!

Date:

Astronomy

Jul. 25, 2014 Rise Set
Actual Time 5:29 AM MDT 8:40 PM MDT
Civil Twilight 4:53 AM MDT 9:17 PM MDT
Nautical Twilight 4:05 AM MDT 10:05 PM MDT
Astronomical Twilight 3:05 AM MDT 11:04 PM MDT
Moon 4:34 AM MDT (7/25) 7:35 PM MDT (7/25)
Length of Visible Light 16h 24m
Length of Day
15h 11m
Waning Crescent, 1% of the Moon is Illuminated
Jul 25
Waning Crescent
Jul 26
New
Aug 3
First Quarter
Aug 10
Full
Aug 17
Last Quarter

Hourly Weather History & Observations

Time (MDT) Temp. Dew Point Humidity Pressure Visibility Wind Dir Wind Speed Gust Speed Precip Events Conditions
12:15 AM 64.4 °F 42.8 °F 45% 29.90 in 10.0 mi North 11.5 mph - N/A   Clear
12:35 AM 60.8 °F 42.8 °F 52% 29.91 in 10.0 mi North 8.1 mph - N/A   Clear
12:55 AM 57.2 °F 44.6 °F 63% 29.91 in 10.0 mi NW 6.9 mph - N/A   Clear
1:15 AM 57.2 °F 46.4 °F 67% 29.91 in 10.0 mi NW 5.8 mph - N/A   Clear
1:35 AM 55.4 °F 46.4 °F 72% 29.91 in 10.0 mi West 8.1 mph - N/A   Clear
1:55 AM 53.6 °F 46.4 °F 77% 29.92 in 10.0 mi West 9.2 mph - N/A   Clear
2:15 AM 53.6 °F 48.2 °F 82% 29.91 in 10.0 mi WNW 8.1 mph - N/A   Clear
2:35 AM 53.6 °F 48.2 °F 82% 29.92 in 10.0 mi West 8.1 mph - N/A   Clear
2:55 AM 51.8 °F 48.2 °F 88% 29.92 in 10.0 mi West 9.2 mph - N/A   Clear
3:15 AM 51.8 °F 46.4 °F 82% 29.93 in 10.0 mi West 8.1 mph - N/A   Clear
3:35 AM 51.8 °F 46.4 °F 82% 29.93 in 10.0 mi WNW 8.1 mph - N/A   Clear
3:55 AM 51.8 °F 46.4 °F 82% 29.93 in 10.0 mi WNW 6.9 mph - N/A   Clear
4:15 AM 51.8 °F 46.4 °F 82% 29.94 in 10.0 mi WNW 8.1 mph - N/A   Clear
4:35 AM 51.8 °F 44.6 °F 76% 29.95 in 10.0 mi WNW 6.9 mph - N/A   Clear
4:55 AM 51.8 °F 46.4 °F 82% 29.94 in 10.0 mi WNW 6.9 mph - N/A   Clear
5:15 AM 53.6 °F 44.6 °F 72% 29.94 in 10.0 mi WNW 6.9 mph - N/A   Clear
5:35 AM 51.8 °F 44.6 °F 76% 29.95 in 10.0 mi WNW 5.8 mph - N/A   Clear
5:55 AM 51.8 °F 44.6 °F 76% 29.95 in 10.0 mi WNW 3.5 mph - N/A   Clear
6:15 AM 51.8 °F 46.4 °F 82% 29.95 in 10.0 mi WNW 4.6 mph - N/A   Clear
6:35 AM 53.6 °F 46.4 °F 77% 29.95 in 10.0 mi South 4.6 mph - N/A   Clear
6:55 AM 53.6 °F 46.4 °F 77% 29.95 in 10.0 mi SSW 4.6 mph - N/A   Clear
7:15 AM 57.2 °F 48.2 °F 72% 29.96 in 10.0 mi WSW 4.6 mph - N/A   Clear
7:35 AM 57.2 °F 48.2 °F 72% 29.96 in 10.0 mi SSW 4.6 mph - N/A   Clear
7:55 AM 60.8 °F 48.2 °F 63% 29.96 in 10.0 mi South 5.8 mph - N/A   Clear
8:15 AM 62.6 °F 48.2 °F 59% 29.96 in 10.0 mi SSE 5.8 mph - N/A   Clear
8:35 AM 64.4 °F 50.0 °F 59% 29.95 in 10.0 mi SE 3.5 mph - N/A   Clear
8:55 AM 64.4 °F 51.8 °F 64% 29.95 in 10.0 mi SE 5.8 mph - N/A   Clear
9:15 AM 66.2 °F 51.8 °F 60% 29.94 in 10.0 mi SE 5.8 mph - N/A   Clear
9:35 AM 69.8 °F 50.0 °F 49% 29.93 in 10.0 mi SSE 6.9 mph - N/A   Clear
9:55 AM 73.4 °F 42.8 °F 33% 29.92 in 10.0 mi SSW 9.2 mph - N/A   Clear
10:15 AM 75.2 °F 42.8 °F 31% 29.91 in 10.0 mi SW 12.7 mph - N/A   Clear
10:35 AM 75.2 °F 42.8 °F 31% 29.90 in 10.0 mi WSW 15.0 mph 24.2 mph N/A   Clear
10:55 AM 75.2 °F 42.8 °F 31% 29.90 in 10.0 mi WSW 16.1 mph 21.9 mph N/A   Clear
11:15 AM 77.0 °F 44.6 °F 32% 29.89 in 10.0 mi SW 17.3 mph 21.9 mph N/A   Clear
11:35 AM 78.8 °F 44.6 °F 30% 29.88 in 10.0 mi WSW 17.3 mph 24.2 mph N/A   Clear
11:55 AM 78.8 °F 44.6 °F 30% 29.88 in 10.0 mi SW 16.1 mph 23.0 mph N/A   Clear
12:15 PM 78.8 °F 44.6 °F 30% 29.86 in 10.0 mi SW 16.1 mph 25.3 mph N/A   Clear
12:35 PM 80.6 °F 44.6 °F 28% 29.85 in 10.0 mi SW 11.5 mph 21.9 mph N/A   Clear
12:55 PM 80.6 °F 44.6 °F 28% 29.85 in 10.0 mi SW 13.8 mph 24.2 mph N/A   Clear
1:15 PM 82.4 °F 42.8 °F 25% 29.84 in 10.0 mi SSW 12.7 mph 20.7 mph N/A   Clear
1:35 PM 84.2 °F 39.2 °F 20% 29.83 in 10.0 mi WSW 17.3 mph 23.0 mph N/A   Clear
1:55 PM 84.2 °F 37.4 °F 19% 29.82 in 10.0 mi SW 17.3 mph 23.0 mph N/A   Clear
2:15 PM 84.2 °F 37.4 °F 19% 29.82 in 10.0 mi West 17.3 mph 28.8 mph N/A   Clear
2:35 PM 84.2 °F 37.4 °F 19% 29.81 in 10.0 mi SW 20.7 mph 28.8 mph N/A   Clear
2:55 PM 86.0 °F 37.4 °F 18% 29.80 in 10.0 mi WSW 25.3 mph 32.2 mph N/A   Clear
3:15 PM 86.0 °F 35.6 °F 17% 29.79 in 10.0 mi WSW 18.4 mph 26.5 mph N/A   Clear
3:35 PM 87.8 °F 37.4 °F 17% 29.79 in 10.0 mi West 20.7 mph 36.8 mph N/A   Clear
3:55 PM 87.8 °F 33.8 °F 15% 29.79 in 10.0 mi WSW 17.3 mph 33.4 mph N/A   Clear
4:15 PM 87.8 °F 33.8 °F 15% 29.78 in 10.0 mi WSW 24.2 mph 29.9 mph N/A   Clear
4:35 PM 87.8 °F 35.6 °F 16% 29.78 in 10.0 mi WSW 18.4 mph 26.5 mph N/A   Clear
4:55 PM 87.8 °F 33.8 °F 15% 29.78 in 10.0 mi WSW 21.9 mph 38.0 mph N/A   Clear
5:15 PM 87.8 °F 32.0 °F 14% 29.78 in 10.0 mi West 15.0 mph 28.8 mph N/A   Clear
5:35 PM 87.8 °F 33.8 °F 15% 29.78 in 10.0 mi NW 13.8 mph 19.6 mph N/A   Clear
5:55 PM 84.2 °F 33.8 °F 16% 29.78 in 10.0 mi NW 15.0 mph 23.0 mph N/A   Clear
6:15 PM 84.2 °F 33.8 °F 16% 29.78 in 10.0 mi NW 13.8 mph - N/A   Clear
6:35 PM 84.2 °F 33.8 °F 16% 29.78 in 10.0 mi WNW 11.5 mph 19.6 mph N/A   Clear
6:55 PM 84.2 °F 33.8 °F 16% 29.78 in 10.0 mi WNW 15.0 mph 21.9 mph N/A   Clear
7:15 PM 84.2 °F 33.8 °F 16% 29.79 in 10.0 mi WNW 15.0 mph - N/A   Clear
7:35 PM 82.4 °F 33.8 °F 17% 29.80 in 10.0 mi NW 13.8 mph 17.3 mph N/A   Clear
7:55 PM 78.8 °F 37.4 °F 23% 29.80 in 10.0 mi NNW 10.4 mph - N/A   Clear
8:15 PM 75.2 °F 39.2 °F 27% 29.81 in 10.0 mi NW 6.9 mph - N/A   Clear
8:35 PM 73.4 °F 39.2 °F 29% 29.82 in 10.0 mi NW 8.1 mph - N/A   Clear
8:55 PM 71.6 °F 37.4 °F 29% 29.83 in 10.0 mi NW 6.9 mph - N/A   Clear
9:15 PM 68.0 °F 39.2 °F 35% 29.84 in 9.0 mi NW 5.8 mph - N/A   Clear
9:35 PM 60.8 °F 42.8 °F 52% 29.85 in 10.0 mi West 5.8 mph - N/A   Clear
9:55 PM 62.6 °F 41.0 °F 45% 29.85 in 10.0 mi West 6.9 mph - N/A   Clear
10:15 PM 60.8 °F 41.0 °F 48% 29.86 in 10.0 mi WSW 6.9 mph - N/A   Clear
10:35 PM 64.4 °F 41.0 °F 42% 29.88 in 10.0 mi NW 8.1 mph - N/A   Clear
11:15 PM 64.4 °F 42.8 °F 45% 29.90 in 10.0 mi NNW 16.1 mph - N/A   Clear
11:35 PM 62.6 °F 44.6 °F 52% 29.91 in 10.0 mi NNW 15.0 mph - N/A   Clear
11:55 PM 62.6 °F 46.4 °F 55% 29.92 in 10.0 mi NNW 11.5 mph - N/A   Clear